DateTime,F1_A11,F1_S11,BsB_S11,BsG_S11,BsR_S11,BbsB_S11,BbsG_S11,BbsR_S11,BaB_A11,BaG_A11,BaR_A11,T_S11,U_S11,P_S11,T1_A11
2016-12-07T00:00:00Z,0000380,20000600,,,,,,,,,,25.6,01.8,0644.9,34.6
2016-12-07T00:01:00Z,0000380,20000600,,,,,,,,,,25.6,01.8,0644.9,34.6
2016-12-07T00:02:00Z,0000380,20000600,,,,,,,,,,25.6,01.8,0644.9,34.6
2016-12-07T00:03:00Z,0000380,60000600,,,,,,,,,,25.6,01.8,0644.9,34.6
2016-12-07T00:04:00Z,0000380,40000600,-001.03,0000.32,0000.40,0000.77,0000.17,0000.22,0000.25,-000.01,-000.09,25.7,01.9,0645.8,34.6
2016-12-07T00:05:00Z,0000380,00000600,-000.27,-000.65,-000.25,0000.19,-000.17,0000.20,-000.20,0000.18,-000.04,25.7,01.9,0645.9,34.6
2016-12-07T00:06:00Z,0000380,00000600,-000.86,-000.30,0000.31,0000.54,0000.16,0000.18,0000.27,-000.04,0000.02,25.7,01.8,0646.0,34.6
2016-12-07T00:07:00Z,0000380,00000600,0000.29,-000.45,0000.23,0000.29,-000.40,0000.25,0000.06,-000.12,-000.19,25.7,01.9,0646.0,34.6
2016-12-07T00:08:00Z,0000380,00000600,0000.74,-000.52,0000.13,0000.57,-000.09,-000.05,0000.08,0000.06,0000.09,25.8,01.8,0646.0,34.6
2016-12-07T00:09:00Z,0000380,00000600,0000.96,0000.38,-000.13,0000.24,-000.06,0000.55,-000.16,0000.14,0000.04,25.8,01.8,0646.0,34.6
2016-12-07T00:10:00Z,0000380,00000600,-000.26,0000.27,-000.12,0000.13,0000.28,0000.38,0000.19,0000.07,0000.20,25.8,01.8,0646.0,34.6
2016-12-07T00:11:00Z,0000380,00000600,0001.08,-000.16,0000.11,0000.02,-000.06,0000.27,-000.14,-000.02,0000.15,25.8,01.9,0646.0,34.6
2016-12-07T00:12:00Z,0000380,00000600,0000.10,-000.04,0000.24,0000.13,-000.14,0000.29,0000.02,0000.00,0000.14,25.8,01.8,0646.0,34.6
2016-12-07T00:13:00Z,0000380,00000600,0000.04,-000.55,-000.16,0000.25,-000.02,0000.39,0000.21,0000.14,-000.09,25.9,01.8,0646.0,34.6
2016-12-07T00:14:00Z,0000380,00000600,-000.06,0000.02,0000.02,0000.61,0000.32,-000.00,-000.03,0000.26,-000.27,25.9,01.7,0646.0,34.6
2016-12-07T00:15:00Z,0000380,00000600,-000.04,-000.65,0000.06,0000.24,0000.08,0000.04,0000.05,-000.25,0000.01,25.9,01.7,0646.0,34.6
2016-12-07T00:16:00Z,0000380,00000600,0000.44,-000.21,0000.13,-000.14,0000.05,0000.02,0000.05,0000.18,0000.25,25.9,01.7,0646.0,34.6
2016-12-07T00:17:00Z,0000380,00000600,0000.38,-000.21,0000.12,0000.18,-000.38,0000.09,0000.07,0000.05,0000.02,25.9,01.8,0646.0,34.6
2016-12-07T00:18:00Z,0000380,00000600,0000.89,0000.14,0000.17,0000.50,0000.36,0000.15,-000.04,-000.19,-000.23,25.9,01.8,0646.0,34.6
2016-12-07T00:19:00Z,0000380,00000600,0000.84,-000.27,0000.66,0000.35,0000.69,0000.23,0000.11,0000.22,0000.23,25.9,01.7,0646.0,34.6
2016-12-07T00:20:00Z,0000380,00000600,0000.76,0000.01,0000.87,-000.05,0000.20,0000.24,0000.03,0000.07,-000.01,25.9,01.7,0646.0,34.6
2016-12-07T00:21:00Z,0000380,00000600,-000.34,-000.16,-000.18,0000.47,0000.34,-000.14,0000.09,-000.05,0000.24,25.9,01.7,0646.0,34.6
2016-12-07T00:22:00Z,0000380,00000600,-000.37,0000.37,0000.60,-000.26,-000.32,0000.42,0000.01,0000.02,0000.03,26.0,01.7,0646.0,34.6
2016-12-07T00:23:00Z,0000380,00000600,0000.34,0000.10,0000.21,0000.11,-000.27,0000.20,0000.09,0000.19,0000.15,26.0,01.7,0646.0,34.6
2016-12-07T00:24:00Z,0000380,00000600,-000.02,-000.07,0000.62,0000.22,-000.02,0000.07,0000.04,0000.07,-000.21,26.0,01.7,0646.0,34.6
2016-12-07T00:25:00Z,0000380,00000600,0000.75,-000.53,-000.09,-000.05,-000.16,-000.14,-000.01,0000.08,0000.16,26.0,01.8,0646.0,34.6
2016-12-07T00:26:00Z,0000380,00000600,-000.23,0000.10,0000.39,-000.11,0000.44,0000.01,0000.16,0000.01,-000.13,26.0,01.7,0645.9,34.6
2016-12-07T00:27:00Z,0000380,00000600,-000.19,0000.31,0000.65,-000.31,0000.39,0000.60,0000.10,0000.04,0000.26,26.0,01.8,0645.9,34.6
2016-12-07T00:28:00Z,0000380,00000600,-000.34,0000.43,0000.39,0000.10,0000.02,0000.13,0000.28,0000.01,-000.10,26.0,01.8,0645.9,34.6
2016-12-07T00:29:00Z,0000380,00000600,-000.42,0000.31,0000.05,0000.37,0000.54,-000.03,-000.09,0000.14,0000.31,26.0,01.8,0645.9,34.6
2016-12-07T00:30:00Z,0000380,00000600,0000.21,-000.62,0000.11,-000.07,-000.05,0000.19,-000.00,-000.14,-000.45,26.0,01.8,0645.9,34.6
2016-12-07T00:31:00Z,0000380,00000600,0000.19,-000.44,-000.06,0000.29,0000.33,0000.21,0000.02,0000.23,0000.11,26.0,01.9,0645.9,34.6
2016-12-07T00:32:00Z,0000380,00000600,0000.76,0000.03,0000.19,0000.11,0000.25,0000.18,0000.02,-000.10,-000.06,26.0,01.8,0645.9,34.6
2016-12-07T00:33:00Z,0000380,00000600,-000.01,0000.05,0000.49,0000.43,0000.42,0000.20,0000.26,0000.22,0000.04,26.1,01.8,0645.9,34.6
2016-12-07T00:34:00Z,0000380,00000600,-000.55,-000.19,0000.31,0000.20,-000.13,0000.01,-000.10,0000.01,0000.31,26.0,01.7,0645.9,34.6
2016-12-07T00:35:00Z,0000380,00000600,0000.35,-000.33,-000.15,0000.08,0000.22,-000.06,0000.16,0000.11,0000.14,26.1,01.8,0645.9,34.6
2016-12-07T00:36:00Z,0000380,00000600,-000.29,0000.66,0000.55,0000.02,-000.15,0000.31,-000.00,-000.20,-000.12,26.1,01.8,0645.9,34.6
2016-12-07T00:37:00Z,0000380,00000600,0000.36,0000.12,0000.43,0000.14,0000.07,0000.28,0000.03,0000.16,0000.18,26.0,01.8,0645.9,34.6
2016-12-07T00:38:00Z,0000380,00000600,0000.35,-000.27,-000.00,0000.30,0000.36,-000.08,0000.12,0000.04,-000.07,26.1,01.8,0646.0,34.6
2016-12-07T00:39:00Z,0000380,00000600,0000.73,-000.28,0000.96,0000.11,-000.19,0000.49,0000.09,0000.07,-000.08,26.1,01.8,0645.9,34.6
2016-12-07T00:40:00Z,0000380,00000600,0001.45,-000.05,-000.01,0000.18,-000.15,0000.12,-000.02,0000.22,0000.18,26.1,01.8,0645.9,34.6
2016-12-07T00:41:00Z,0000380,00000600,0000.70,-000.13,-000.13,0000.16,-000.09,-000.01,0000.01,0000.08,-000.19,26.1,01.8,0645.9,34.6
2016-12-07T00:42:00Z,0000380,00000600,0000.20,0000.27,0000.01,0000.30,0000.35,-000.14,0000.19,-000.17,0000.35,26.1,01.7,0645.9,34.6
2016-12-07T00:43:00Z,0000380,00000600,0000.56,-000.33,-000.18,0000.38,-000.17,0000.09,0000.02,-000.07,-000.17,26.1,01.7,0645.9,34.6
2016-12-07T00:44:00Z,0000380,00000600,0000.17,-000.33,0000.22,0000.55,0000.15,0000.33,0000.02,0000.29,0000.22,26.1,01.7,0645.9,34.6
2016-12-07T00:45:00Z,0000380,00000600,0000.29,0000.25,0000.27,-000.34,0000.07,-000.08,0000.08,0000.07,0000.05,26.0,01.7,0645.9,34.6
2016-12-07T00:46:00Z,0000380,00000600,0000.37,0000.49,0000.60,-000.81,0000.09,0000.16,0000.03,-000.13,0000.09,26.1,01.8,0645.8,34.6
2016-12-07T00:47:00Z,0000380,00000600,0000.55,0000.15,0000.28,-000.16,0000.27,0000.27,-000.01,0000.13,-000.03,26.1,01.8,0645.9,34.6
2016-12-07T00:48:00Z,0000380,00000600,-000.36,-000.39,0000.08,-000.22,0000.15,0000.29,0000.19,0000.00,-000.21,26.0,01.8,0645.9,34.6
2016-12-07T00:49:00Z,0000380,00000600,0000.08,-000.15,0000.49,-000.13,0000.15,0000.60,0000.02,0000.26,-000.04,26.1,01.8,0645.9,34.6
2016-12-07T00:50:00Z,0000380,00000600,-000.03,-000.47,0000.54,-000.57,0000.28,0000.01,-000.15,0000.09,0000.41,26.1,01.8,0646.0,34.6
2016-12-07T00:51:00Z,0000380,00000600,0000.82,-000.43,0000.21,-000.10,0000.30,0000.06,0000.12,0000.08,0000.24,26.1,01.7,0646.0,34.6
2016-12-07T00:52:00Z,0000380,00000600,-000.11,-000.22,0000.35,-000.48,-000.08,0000.45,0000.17,-000.09,-000.31,26.0,01.7,0645.9,34.6
2016-12-07T00:53:00Z,0000380,00000600,0000.00,-000.25,0000.34,0000.42,0000.15,0000.36,-000.10,-000.01,-000.18,26.0,01.7,0645.9,34.6
2016-12-07T00:54:00Z,0000380,00000600,0000.66,0000.23,0000.43,0000.16,0000.31,0000.70,0000.12,0000.08,0000.40,26.1,01.6,0645.9,34.6
2016-12-07T00:55:00Z,0000380,00000600,0000.47,-000.48,-000.17,0000.28,-000.07,-000.05,0000.05,0000.06,-000.15,26.0,01.7,0645.8,34.6
2016-12-07T00:56:00Z,0000380,00000600,0000.23,0000.07,0000.16,0000.24,0000.47,0000.11,0000.27,0000.12,0000.22,26.0,01.7,0645.8,34.6
2016-12-07T00:57:00Z,0000380,40000600,,,,,,,,,,26.1,01.5,0645.9,34.6
2016-12-07T00:58:00Z,0000380,60000600,,,,,,,,,,25.9,01.8,0644.9,34.6
2016-12-07T00:59:00Z,0000380,20000600,,,,,,,,,,25.9,01.8,0644.8,34.6
2016-12-07T01:00:00Z,0000380,20000600,,,,,,,,,,25.9,01.8,0644.8,34.6
2016-12-07T01:01:00Z,0000380,20000600,,,,,,,,,,25.9,01.8,0644.8,34.6
2016-12-07T01:02:00Z,0000380,20000600,,,,,,,,,,25.9,01.7,0644.8,34.6
2016-12-07T01:03:00Z,0000380,60000600,,,,,,,,,,25.9,01.7,0644.8,34.6
2016-12-07T01:04:00Z,0000380,40000600,0000.38,0000.47,-000.00,-000.33,0000.63,0000.46,0000.13,-000.02,-000.09,26.0,01.7,0645.7,34.6
2016-12-07T01:05:00Z,0000380,00000600,0001.01,-000.00,-000.29,-000.17,0000.69,0000.06,0000.10,0000.00,0000.15,26.0,01.8,0645.8,34.6
2016-12-07T01:06:00Z,0000380,00000600,0000.88,0000.47,0000.17,0000.28,0000.58,0000.30,0000.10,0000.17,-000.02,26.0,01.8,0645.9,34.6
2016-12-07T01:07:00Z,0000380,00000600,0000.59,0000.63,0000.11,0000.11,0000.20,0000.17,-000.20,0000.08,-000.10,26.0,01.8,0645.8,34.6
2016-12-07T01:08:00Z,0000380,00000600,0000.51,0000.31,-000.16,-000.01,0000.17,0000.31,0000.05,-000.03,-000.08,26.0,01.8,0645.8,34.6
2016-12-07T01:09:00Z,0000380,00000600,0000.26,0000.29,-000.10,0000.19,0000.00,0000.32,0000.08,0000.05,0000.38,25.9,01.7,0645.8,34.6
2016-12-07T01:10:00Z,0000380,00000600,0000.61,-000.25,0000.35,-000.33,0000.48,0000.58,-000.01,-000.12,-000.34,25.9,01.7,0645.8,34.6
2016-12-07T01:11:00Z,0000380,00000600,0000.44,0000.23,0000.04,-000.03,0000.40,0000.27,-000.00,-000.00,0000.17,25.9,01.7,0645.8,34.6
2016-12-07T01:12:00Z,0000380,00000600,0000.15,0000.68,0000.05,0000.74,0000.53,-000.07,0000.48,0000.11,-000.07,25.9,01.7,0645.8,34.6
2016-12-07T01:13:00Z,0000380,00000600,0000.65,-000.10,0000.25,0000.22,-000.00,0000.04,-000.19,0000.00,0000.45,25.9,01.8,0645.8,34.6
2016-12-07T01:14:00Z,0000380,00000600,0001.22,0000.27,-000.14,0000.10,0000.26,0000.46,0000.07,0000.18,-000.37,25.9,01.7,0645.7,34.6
2016-12-07T01:15:00Z,0000380,00000600,0000.10,0000.15,0000.04,0000.62,0000.42,-000.15,-000.13,-000.10,-000.02,25.9,01.7,0645.8,34.6
2016-12-07T01:16:00Z,0000380,00000600,0000.50,-000.14,0000.18,-000.49,0000.25,0000.03,0000.08,0000.12,0000.32,25.9,01.7,0645.7,34.6
2016-12-07T01:17:00Z,0000380,00000600,-000.21,0000.28,-000.10,0000.10,-000.38,0000.20,0000.24,0000.14,-000.03,25.9,01.7,0645.7,34.6
2016-12-07T01:18:00Z,0000380,00000600,0000.72,0000.73,0000.42,0000.53,-000.14,0000.69,-000.16,-000.09,-000.18,25.9,01.7,0645.7,34.6
2016-12-07T01:19:00Z,0000380,00000600,0000.68,0000.30,-000.01,0000.11,0000.43,0000.08,0000.16,0000.19,0000.25,25.9,01.8,0645.7,34.6
2016-12-07T01:20:00Z,0000380,00000600,0000.34,0000.20,0000.36,0000.40,-000.04,0000.27,0000.10,-000.02,0000.09,25.9,01.7,0645.7,34.6
2016-12-07T01:21:00Z,0000380,00000600,0001.12,0000.21,0000.06,0000.03,0000.02,0000.51,0000.02,0000.05,0000.15,25.9,01.7,0645.7,34.6
2016-12-07T01:22:00Z,0000380,00000600,0000.51,0000.36,0000.12,-000.19,0000.19,-000.05,0000.10,0000.08,-000.14,25.8,01.8,0645.6,34.6
2016-12-07T01:23:00Z,0000380,00000600,0000.54,0000.13,0000.57,0000.48,0000.51,0000.47,-000.02,0000.07,-000.13,25.8,01.8,0645.6,34.6
2016-12-07T01:24:00Z,0000380,00000600,0000.68,0000.18,0000.28,0000.68,0000.26,0000.34,0000.11,-000.01,0000.31,25.8,01.7,0645.6,34.6
2016-12-07T01:25:00Z,0000380,00000600,0000.55,0000.53,0000.07,-000.09,0000.00,0000.12,0000.02,-000.01,0000.03,25.8,01.8,0645.6,34.6
2016-12-07T01:26:00Z,0000380,00000600,0000.77,-000.11,0000.27,-000.31,-000.08,-000.21,-000.04,-000.05,-000.21,25.8,01.9,0645.6,34.6
2016-12-07T01:27:00Z,0000380,00000600,0001.19,0000.57,-000.16,-000.06,0000.49,0000.01,0000.03,-000.01,0000.10,25.8,01.8,0645.7,34.6
2016-12-07T01:28:00Z,0000380,00000600,0000.60,-000.18,-000.25,-000.74,0000.39,-000.10,-000.15,0000.12,0000.19,25.8,01.7,0645.6,34.6
2016-12-07T01:29:00Z,0000380,00000600,0000.54,-000.20,0000.28,0000.17,0000.53,0000.01,0000.31,0000.14,-000.12,25.8,01.7,0645.6,34.6
2016-12-07T01:30:00Z,0000380,00000600,0000.30,0000.08,-000.01,0000.17,0000.15,0000.15,-000.04,-000.03,-000.05,25.8,01.8,0645.6,34.6
2016-12-07T01:31:00Z,0000380,00000600,0000.25,0000.85,0000.30,-000.03,0000.07,0000.33,0000.03,0000.01,0000.09,25.7,01.8,0645.6,34.6
2016-12-07T01:32:00Z,0000380,00000600,0000.55,0000.63,0000.53,0000.51,0000.20,0000.67,0000.03,0000.16,0000.10,25.7,01.8,0645.6,34.6
2016-12-07T01:33:00Z,0000380,00000600,0000.65,0000.10,-000.13,0000.34,0000.11,0000.28,0000.11,-000.15,-000.08,25.7,01.8,0645.6,34.5
2016-12-07T01:34:00Z,0000380,00000600,0000.20,-000.22,0000.29,0000.51,-000.11,0000.28,0000.17,0000.14,0000.32,25.7,01.7,0645.6,34.5
2016-12-07T01:35:00Z,0000380,00000600,0000.07,-000.37,0000.08,-000.06,0000.30,0000.18,0000.01,0000.03,-000.12,25.7,01.8,0645.6,34.5
2016-12-07T01:36:00Z,0000380,00000600,-000.14,-000.02,0000.23,0000.43,0000.15,0000.30,0000.06,0000.28,0000.09,25.7,01.8,0645.7,34.5
2016-12-07T01:37:00Z,0000380,00000600,0000.71,0000.19,0000.33,0000.01,0000.12,0000.55,0000.14,0000.02,-000.00,25.7,01.7,0645.7,34.5
2016-12-07T01:38:00Z,0000380,00000600,0000.01,-000.07,0000.06,0000.11,0000.22,0000.17,-000.07,-000.04,0000.18,25.6,01.8,0645.7,34.5
2016-12-07T01:39:00Z,0000380,00000600,0001.02,0000.89,0000.65,-000.10,-000.01,0000.42,-000.02,0000.15,-000.10,25.7,01.8,0645.7,34.5
2016-12-07T01:40:00Z,0000380,00000600,0000.38,0000.02,-000.12,0000.61,0000.09,-000.05,0000.22,-000.02,0000.17,25.6,01.7,0645.6,34.5
2016-12-07T01:41:00Z,0000380,00000600,0000.92,-000.02,0000.12,-000.02,0000.47,-000.07,-000.19,0000.00,-000.06,25.6,01.8,0645.7,34.5
2016-12-07T01:42:00Z,0000380,00000600,0000.70,0000.06,0000.11,-000.28,0000.59,0000.09,0000.22,0000.03,0000.13,25.6,01.8,0645.7,34.5
2016-12-07T01:43:00Z,0000380,00000600,0001.33,0000.30,-000.05,0000.37,0000.09,0000.20,0000.08,0000.04,0000.20,25.6,01.7,0645.7,34.5
2016-12-07T01:44:00Z,0000380,00000600,0000.84,0000.22,0000.36,0000.04,0000.50,0000.24,0000.14,0000.04,-000.39,25.6,01.8,0645.7,34.5
2016-12-07T01:45:00Z,0000380,00000600,0000.56,0000.45,-000.05,-000.26,0000.34,0000.17,-000.08,0000.13,0000.38,25.6,01.7,0645.7,34.6
2016-12-07T01:46:00Z,0000380,00000600,0000.98,-000.06,0000.11,0000.24,0000.31,0000.39,-000.04,-000.01,-000.02,25.6,01.8,0645.8,34.5
2016-12-07T01:47:00Z,0000380,00000600,0000.79,0000.37,0000.16,0000.23,-000.02,0000.36,0000.28,0000.15,-000.06,25.6,01.7,0645.7,34.5
2016-12-07T01:48:00Z,0000380,00000600,-000.34,0000.38,-000.15,-000.11,0000.48,0000.19,-000.08,-000.02,0000.20,25.6,01.8,0645.7,34.5
2016-12-07T01:49:00Z,0000380,00000600,0000.37,0000.14,-000.24,0000.73,0000.40,0000.61,0000.16,0000.07,0000.07,25.6,01.8,0645.7,34.5
2016-12-07T01:50:00Z,0000380,00000600,0000.85,0000.42,0000.49,-000.15,0000.14,0000.37,-000.16,-000.16,-000.50,25.6,01.8,0645.7,34.5
2016-12-07T01:51:00Z,0000380,00000600,-000.25,-000.04,0000.26,0000.34,0000.22,-000.10,0000.06,0000.20,0000.51,25.6,01.8,0645.7,34.6
2016-12-07T01:52:00Z,0000380,00000600,0000.38,0000.28,0000.36,0000.37,-000.07,0000.04,0000.20,0000.16,-000.00,25.6,01.8,0645.7,34.6
2016-12-07T01:53:00Z,0000380,00000600,0000.74,0000.53,0000.13,0000.29,0000.51,-000.05,-000.04,-000.06,-000.10,25.6,01.8,0645.7,34.6
2016-12-07T01:54:00Z,0000380,00000600,0000.33,0000.22,-000.08,0000.32,0000.40,0000.26,-000.19,-000.04,-000.15,25.6,01.8,0645.7,34.6
2016-12-07T01:55:00Z,0000380,00000600,0001.40,0000.91,0000.10,-000.47,0000.25,0000.04,0000.33,-000.01,0000.38,25.6,01.8,0645.7,34.5
2016-12-07T01:56:00Z,0000380,00000600,0000.48,0000.22,0000.16,-000.26,0000.13,0000.61,0000.01,0000.13,-000.19,25.6,01.8,0645.7,34.5
2016-12-07T01:57:00Z,0000380,40000600,,,,,,,,,,25.6,01.3,0645.6,34.6
2016-12-07T01:58:00Z,0000380,60000600,,,,,,,,,,25.5,01.7,0644.7,34.6
2016-12-07T01:59:00Z,0000380,20000600,,,,,,,,,,25.6,01.8,0644.7,34.6
2016-12-07T02:00:00Z,0000380,20000600,,,,,,,,,,25.6,01.7,0644.7,34.6
2016-12-07T02:01:00Z,0000380,20000600,,,,,,,,,,25.6,01.7,0644.7,34.6
2016-12-07T02:02:00Z,0000380,20000600,,,,,,,,,,25.6,01.7,0644.7,34.6
2016-12-07T02:03:00Z,0000380,60000600,,,,,,,,,,25.6,01.7,0644.7,34.6
2016-12-07T02:04:00Z,0000380,40000600,-000.14,0000.32,-000.02,0000.06,-000.17,-000.08,-000.07,0000.17,-000.29,25.6,01.8,0645.7,34.6
2016-12-07T02:05:00Z,0000380,00000600,-001.02,0001.07,-000.15,-000.21,0000.15,-000.06,0000.49,-000.03,0000.05,25.6,01.8,0645.7,34.6
2016-12-07T02:06:00Z,0000380,00000600,0000.52,0000.55,-000.51,-000.12,-000.38,0000.10,-000.32,-000.16,0000.38,25.7,01.7,0645.8,34.6
2016-12-07T02:07:00Z,0000380,00000600,0001.07,0000.04,-000.15,0000.27,0000.36,0000.14,0000.21,0000.12,0000.04,25.7,01.7,0645.8,34.6
2016-12-07T02:08:00Z,0000380,00000600,0000.76,0000.66,-000.10,0000.28,-000.01,0000.05,-000.02,0000.22,-000.35,25.7,01.7,0645.8,34.6
2016-12-07T02:09:00Z,0000380,00000600,-000.53,0000.97,-000.49,-000.03,0000.09,-000.14,0000.11,-000.09,0000.49,25.7,01.7,0645.8,34.6
2016-12-07T02:10:00Z,0000380,00000600,-000.39,-000.20,0000.03,0000.27,-000.81,-000.13,0000.04,0000.06,0000.01,25.7,01.6,0645.8,34.6
2016-12-07T02:11:00Z,0000380,00000600,0000.70,0000.26,-000.34,-000.32,-000.44,0000.03,-000.04,0000.05,0000.01,25.7,01.7,0645.8,34.6
2016-12-07T02:12:00Z,0000380,00000600,0000.86,0000.49,0000.42,-000.35,-000.23,-000.04,0000.08,0000.06,0000.18,25.7,01.7,0645.8,34.6
2016-12-07T02:13:00Z,0000380,00000600,-000.16,0000.16,0000.04,0000.52,0000.09,0000.21,-000.11,-000.04,-000.22,25.7,01.6,0645.7,34.6
2016-12-07T02:14:00Z,0000380,00000600,0000.23,0000.01,0000.12,-000.18,0000.16,-000.04,0000.16,-000.05,0000.00,25.7,01.6,0645.7,34.6
2016-12-07T02:15:00Z,0000380,00000600,0000.55,0000.26,-000.00,-000.47,-000.32,0000.10,0000.12,0000.17,0000.11,25.7,01.6,0645.7,34.6
2016-12-07T02:16:00Z,0000380,00000600,0000.38,-000.20,-000.19,0000.34,-000.24,-000.43,0000.02,0000.04,0000.00,25.7,01.6,0645.8,34.6
2016-12-07T02:17:00Z,0000380,00000600,0001.09,0000.40,0000.13,0000.43,0000.15,0000.08,-000.02,0000.08,-000.09,25.7,01.6,0645.7,34.6
2016-12-07T02:18:00Z,0000380,00000600,0000.10,0000.85,-000.53,0000.11,-000.17,-000.00,0000.01,-000.10,-000.07,25.7,01.6,0645.7,34.6
2016-12-07T02:19:00Z,0000380,00000600,0000.52,0000.57,0000.20,-000.66,0000.54,0000.21,0000.19,0000.09,0000.11,25.7,01.6,0645.8,34.6
2016-12-07T02:20:00Z,0000380,00000600,0001.12,0000.40,0000.03,-000.47,0000.34,-000.04,0000.08,0000.19,0000.16,25.7,01.6,0645.8,34.6
2016-12-07T02:21:00Z,0000380,00000600,-001.27,0000.78,-000.62,-000.28,-000.19,-000.11,-000.21,-000.05,0000.21,25.7,01.5,0645.8,34.6
2016-12-07T02:22:00Z,0000380,00000600,0000.06,-000.15,-000.10,-000.10,0000.04,-000.07,0000.31,0000.07,-000.29,25.7,01.5,0645.7,34.6
2016-12-07T02:23:00Z,0000380,00000600,0000.63,0000.25,0000.11,0000.47,0000.28,-000.31,-000.08,-000.01,0000.44,25.7,01.5,0645.8,34.6
2016-12-07T02:24:00Z,0000380,00000600,0000.92,0001.13,-000.32,0000.16,-000.03,-000.24,0000.04,0000.08,-000.14,25.7,01.6,0645.8,34.6
2016-12-07T02:25:00Z,0000380,00000600,0000.41,0000.80,-000.11,0000.36,0000.04,-000.23,-000.03,0000.02,-000.05,25.7,01.5,0645.7,34.6
2016-12-07T02:26:00Z,0000380,00000600,0000.44,0000.49,0000.22,-000.29,0000.62,-000.29,0000.22,0000.16,0000.10,25.8,01.6,0645.7,34.6
2016-12-07T02:27:00Z,0000380,00000600,-000.11,0000.55,0000.11,-000.58,0000.24,0000.29,0000.14,-000.07,0000.13,25.8,01.5,0645.7,34.6
2016-12-07T02:28:00Z,0000380,00000600,0000.54,0000.43,-000.14,0000.05,-000.25,-000.16,-000.18,0000.09,-000.21,25.8,01.5,0645.7,34.6
2016-12-07T02:29:00Z,0000380,00000600,0000.81,0000.86,0000.43,0000.23,0000.29,-000.02,-000.11,-000.12,0000.28,25.8,01.6,0645.7,34.6
2016-12-07T02:30:00Z,0000380,00000600,0000.01,0000.56,0000.49,-000.04,-000.00,0000.20,0000.15,0000.05,-000.08,25.8,01.6,0645.7,34.6
2016-12-07T02:31:00Z,0000380,00000600,-000.16,-000.18,0000.03,0000.06,-000.13,0000.14,0000.12,0000.07,-000.08,25.8,01.5,0645.7,34.6
2016-12-07T02:32:00Z,0000380,00000600,0000.09,-000.13,0000.18,-000.57,0000.20,0000.15,0000.26,-000.04,0000.21,25.8,01.4,0645.7,34.6
2016-12-07T02:33:00Z,0000380,00000600,0000.25,-000.10,-000.08,0000.88,-000.02,-000.02,-000.27,0000.15,0000.12,25.8,01.5,0645.7,34.6
2016-12-07T02:34:00Z,0000380,00000600,0000.53,0000.21,-000.12,-000.14,0000.12,0000.21,0000.09,-000.15,-000.10,25.8,01.5,0645.7,34.6
2016-12-07T02:35:00Z,0000380,00000600,-000.25,0001.09,-000.36,-000.12,-000.01,-000.06,0000.21,0000.25,0000.08,25.8,01.4,0645.7,34.6
2016-12-07T02:36:00Z,0000380,00000600,-000.07,0000.26,0000.07,0000.47,0000.06,0000.22,-000.14,0000.01,0000.05,25.8,01.4,0645.7,34.6
2016-12-07T02:37:00Z,0000380,00000600,0000.91,0000.36,-000.32,-000.22,0000.60,-000.40,0000.14,0000.18,0000.15,25.8,01.5,0645.8,34.6
2016-12-07T02:38:00Z,0000380,00000600,0001.29,-000.08,-000.31,0000.70,0000.37,0000.03,0000.00,0000.06,0000.09,25.8,01.4,0645.8,34.6
2016-12-07T02:39:00Z,0000380,01000600,0000.24,-000.14,0000.22,-000.24,-000.19,0000.59,0000.05,0000.05,-000.01,25.8,01.4,0645.7,34.6
2016-12-07T02:40:00Z,0000380,01000600,0000.70,0000.09,-000.14,0000.05,0000.29,-000.09,-000.05,-000.02,-000.03,25.8,01.4,0645.8,34.6
2016-12-07T02:41:00Z,0000380,00000600,0000.06,0000.30,-000.30,-000.23,0000.40,-000.22,0000.05,0000.02,0000.09,25.8,01.4,0645.8,34.6
2016-12-07T02:42:00Z,0000380,01000600,0000.67,-000.04,0000.24,-000.27,0000.45,-000.13,0000.06,0000.14,0000.04,25.8,01.4,0645.8,34.6
2016-12-07T02:43:00Z,0000380,00000600,-000.32,0000.57,-000.02,-000.29,0000.38,0000.09,0000.02,-000.11,0000.05,25.8,01.5,0645.8,34.6
2016-12-07T02:44:00Z,0000380,01000600,0000.28,0000.52,-000.51,-000.21,0000.27,-000.11,0000.05,0000.13,0000.03,25.8,01.3,0645.8,34.6
2016-12-07T02:45:00Z,0000380,00000600,0000.78,0000.49,0000.08,0000.02,0000.11,0000.29,0000.01,-000.18,-000.06,25.8,01.4,0645.8,34.6
2016-12-07T02:46:00Z,0000380,01000600,0001.32,0000.96,0000.18,-000.23,0000.08,-000.05,0000.09,0000.22,0000.22,25.8,01.3,0645.8,34.6
2016-12-07T02:47:00Z,0000380,01000600,0001.04,0000.57,-000.00,0000.30,0000.06,0000.13,0000.03,0000.03,0000.01,25.9,01.3,0645.8,34.6
2016-12-07T02:48:00Z,0000380,01000600,0000.94,-000.05,-000.39,-000.00,0000.05,-000.45,0000.04,-000.22,-000.10,25.8,01.3,0645.8,34.6
2016-12-07T02:49:00Z,0000380,01000600,0000.20,0000.64,-000.17,0000.09,0000.36,0000.17,-000.00,0000.20,-000.06,25.9,01.3,0645.8,34.6
2016-12-07T02:50:00Z,0000380,01000600,0000.23,0000.50,0000.26,0000.27,-000.69,-000.06,-000.13,-000.03,0000.17,25.9,01.3,0645.8,34.6
2016-12-07T02:51:00Z,0000380,01000600,0000.51,0000.35,-000.17,0000.41,-000.33,0000.08,0000.12,0000.15,-000.08,25.9,01.3,0645.8,34.6
2016-12-07T02:52:00Z,0000380,01000600,0000.30,0000.22,-000.09,0000.12,0000.52,-000.21,-000.23,-000.10,-000.09,25.9,01.3,0645.8,34.6
2016-12-07T02:53:00Z,0000380,01000600,0000.09,0000.66,-000.32,-000.02,0000.19,0000.01,0000.11,0000.04,-000.17,25.9,01.3,0645.8,34.6
2016-12-07T02:54:00Z,0000380,01000600,0000.82,0000.46,-000.18,-000.34,0000.37,0000.19,0000.31,-000.06,0000.51,25.9,01.3,0645.8,34.6
2016-12-07T02:55:00Z,0000380,01000600,0000.98,0000.14,-000.37,0000.32,0000.12,0000.09,-000.05,0000.01,-000.08,25.9,01.2,0645.8,34.6
2016-12-07T02:56:00Z,0000380,01000600,0000.60,0000.68,-000.27,-000.10,0000.80,0000.06,-000.02,0000.06,-000.18,25.9,01.2,0645.8,34.6
2016-12-07T02:57:00Z,0000380,40000600,,,,,,,,,,25.9,01.1,0645.9,34.6
2016-12-07T02:58:00Z,0000380,60000600,,,,,,,,,,25.9,01.3,0644.9,34.6
2016-12-07T02:59:00Z,0000380,20000600,,,,,,,,,,25.9,01.3,0644.8,34.6
2016-12-07T03:00:00Z,0000380,20000600,,,,,,,,,,25.9,01.2,0644.8,34.6
2016-12-07T03:01:00Z,0000380,20000600,,,,,,,,,,25.9,01.1,0644.8,34.6
2016-12-07T03:02:00Z,0000380,20000600,,,,,,,,,,25.9,01.1,0644.8,34.6
2016-12-07T03:03:00Z,0000380,60000600,,,,,,,,,,25.9,01.1,0644.8,34.6
2016-12-07T03:04:00Z,0000380,41000600,-000.25,0000.19,0000.14,0000.16,-000.37,0000.13,0000.18,0000.29,-000.05,26.0,01.2,0645.6,34.6
2016-12-07T03:05:00Z,0000380,01000600,0000.51,0000.62,0000.76,0000.44,-000.07,0000.33,0000.05,-000.07,0000.17,26.0,01.2,0645.7,34.6
2016-12-07T03:06:00Z,0000380,01000600,-000.88,0000.63,0000.49,0000.04,-000.24,0000.32,0000.01,-000.01,-000.20,26.0,01.1,0645.7,34.6
2016-12-07T03:07:00Z,0000380,01000600,0001.58,0000.58,0000.12,0000.85,-000.04,0000.20,-000.02,0000.05,-000.04,26.0,01.1,0645.7,34.6
2016-12-07T03:08:00Z,0000380,01000600,0000.09,0000.07,0000.04,0000.51,-000.50,-000.15,0000.11,-000.00,0000.12,26.0,01.2,0645.7,34.6
2016-12-07T03:09:00Z,0000380,01000600,-001.20,0000.56,0000.42,0000.46,0000.25,0000.13,0000.24,0000.14,-000.21,26.1,01.2,0645.7,34.6
2016-12-07T03:10:00Z,0000380,01000600,0001.12,0000.96,0000.20,0000.12,0000.52,0000.08,0000.03,0000.02,0000.36,26.0,01.2,0645.7,34.6
2016-12-07T03:11:00Z,0000380,01000600,0001.27,0000.84,-000.05,0000.26,0000.24,0000.07,-000.11,0000.10,-000.24,26.0,01.2,0645.7,34.6